KT4FD Weather Reports


time (UTC)temp
C
wind
direction
speed
KPH
gust
KPH
rain 1hr
cm
rain 24hr
cm
rain mn
cm
humidity
%
barometer
mb
20260903205002 33 324 3.2 8.0 0.00 0.00 0.00 57 1017.1
20260903204002 32 324 4.8 4.8 0.00 0.00 0.00 60 1017.1
20260903203002 32 324 0.0 3.2 0.00 0.00 0.00 60 1017.2
20260903202003 32 324 1.6 4.8 0.00 0.00 0.00 60 1017.3
20260903151003 30 30 0.0 0.0 0.00 0.00 0.00 71 1019.6
20260903140003 26 30 0.0 0.0 0.00 0.00 0.00 78 1019.6
20260903135002 25 30 0.0 0.0 0.00 0.00 0.00 88 1019.6
20260903134002 24 30 0.0 0.0 0.00 0.00 0.00 90 1019.8
20260903133002 23 30 0.0 0.0 0.00 0.00 0.00 90 1019.9
20260903132003 22 30 0.0 0.0 0.00 0.00 0.00 90 1019.9
20260903131003 22 30 0.0 0.0 0.00 0.00 0.00 90 1020.1
20260903130003 21 30 0.0 0.0 0.00 0.00 0.00 90 1020.1
20260903120002 20 30 0.0 0.0 0.00 0.00 0.00 91 1020.1
20260903115002 20 30 0.0 0.0 0.00 0.00 0.00 91 1019.8
20260903114003 20 30 0.0 0.0 0.00 0.00 0.00 91 1019.7
20260903113003 20 30 0.0 0.0 0.00 0.00 0.00 91 1019.7
20260903112003 20 30 0.0 0.0 0.00 0.00 0.00 91 1019.4
20260903111002 20 30 0.0 0.0 0.00 0.00 0.00 91 1019.2
20260903110002 20 30 0.0 0.0 0.00 0.00 0.00 91 1019.2
20260903105003 21 30 0.0 0.0 0.00 0.00 0.00 91 1019.2
20260903104003 21 30 0.0 0.0 0.00 0.00 0.00 91 1019.1
20260903103002 21 30 0.0 0.0 0.00 0.00 0.00 91 1019.0
20260903102002 21 30 0.0 0.0 0.00 0.00 0.00 91 1018.9
20260903101003 21 30 0.0 0.0 0.00 0.00 0.00 91 1018.8
20260903100002 21 30 0.0 0.0 0.00 0.00 0.00 91 1018.7
20260903075002 21 30 0.0 0.0 0.00 0.00 0.00 91 1018.9
20260903074002 21 30 0.0 0.0 0.00 0.00 0.00 91 1018.8
20260903073002 21 30 0.0 0.0 0.00 0.00 0.00 91 1018.9
20260903072003 21 30 0.0 0.0 0.00 0.00 0.00 91 1018.9
20260903071003 21 30 0.0 0.0 0.00 0.00 0.00 91 1018.9
20260903070002 21 30 0.0 0.0 0.00 0.00 0.00 91 1018.9
20260903045002 22 30 0.0 4.8 0.00 0.00 0.00 90 1019.3
20260903044003 22 30 0.0 0.0 0.00 0.00 0.00 90 1019.1
20260903043003 22 30 0.0 0.0 0.00 0.00 0.00 90 1019.1
20260903042003 22 30 0.0 0.0 0.00 0.00 0.00 90 1019.0
20260903041003 22 30 0.0 0.0 0.00 0.00 0.00 90 1019.0
20260903040003 22 30 0.0 0.0 0.00 0.00 0.00 90 1019.1
20260903035003 22 30 0.0 0.0 0.00 0.00 0.00 90 1019.1
20260903034003 22 30 0.0 0.0 0.00 0.00 0.00 90 1019.2
20260903033003 22 30 0.0 0.0 0.00 0.00 0.00 90 1019.3
20260903032003 23 30 0.0 0.0 0.00 0.00 0.00 90 1019.5
20260903031003 23 30 0.0 0.0 0.00 0.00 0.00 89 1019.4
20260903030003 23 30 0.0 0.0 0.00 0.00 0.00 89 1019.4
20260903025003 23 30 0.0 1.6 0.00 0.00 0.00 89 1019.3
20260903014003 24 30 0.0 0.0 0.00 0.00 0.00 88 1019.1
20260903013003 24 30 0.0 0.0 0.00 0.00 0.00 89 1018.9
20260903012003 24 30 0.0 0.0 0.00 0.00 0.00 88 1018.8
20260903011003 25 30 0.0 0.0 0.00 0.00 0.00 88 1018.6
20260903010003 25 30 0.0 0.0 0.00 0.00 0.00 87 1018.5
20260903005003 25 30 0.0 0.0 0.00 0.00 0.00 87 1018.4
20260903004003 26 30 0.0 0.0 0.00 0.00 0.00 86 1018.4
20260902233003 31 29 0.0 0.0 0.00 0.00 0.00 66 1018.1
20260902232003 32 29 0.0 0.0 0.00 0.00 0.00 61 1018.1
20260902231003 32 29 0.0 0.0 0.00 0.00 0.00 63 1018.1
20260902230003 32 29 0.0 0.0 0.00 0.00 0.00 61 1018.2
20260902225003 32 29 0.0 0.0 0.00 0.00 0.00 62 1018.2
20260902224002 32 29 0.0 0.0 0.00 0.00 0.00 61 1018.4